QTR3M OTHH-OMDB

Flight info

Callsign QTR3M
Flight time 0h 47m
Altitude 21000
Route ALSEM L305 ITBUL M677 VUTEB
Aircraft B77W/H-SDE1E2E3FGHIJ2J3J4J5M1RWXY/LB1D1

Departure

Time 2026-05-04 12:08
Airport Hamad International Airport (OTHH)

Arrival

Time 2026-05-04 12:56
Airport Dubai International Airport (OMDB)
Time Latitude Longitude Altitude Speed Heading
2026-05-04 11:36 25.26315 51.61590 35 ft 0 kts 159°
2026-05-04 11:57 25.26319 51.61588 34 ft 3 kts 159°
2026-05-04 11:57 25.26344 51.61578 33 ft 4 kts 159°
2026-05-04 11:57 25.26369 51.61567 34 ft 3 kts 159°
2026-05-04 11:58 25.26389 51.61558 32 ft 4 kts 147°
2026-05-04 11:58 25.26403 51.61541 31 ft 4 kts 82°
2026-05-04 11:58 25.26396 51.61515 32 ft 4 kts 68°
2026-05-04 11:58 25.26389 51.61497 32 ft 0 kts 68°
2026-05-04 12:02 25.26393 51.61507 35 ft 5 kts 68°
2026-05-04 12:03 25.26412 51.61559 35 ft 8 kts 68°
2026-05-04 12:03 25.26423 51.61589 35 ft 4 kts 68°
2026-05-04 12:03 25.26450 51.61661 35 ft 11 kts 68°
2026-05-04 12:03 25.26479 51.61742 35 ft 11 kts 68°
2026-05-04 12:04 25.26509 51.61823 35 ft 11 kts 68°
2026-05-04 12:04 25.26524 51.61907 34 ft 11 kts 102°
2026-05-04 12:04 25.26464 51.61962 34 ft 12 kts 155°
2026-05-04 12:04 25.26390 51.61997 35 ft 12 kts 158°
2026-05-04 12:05 25.26315 51.62030 35 ft 12 kts 159°
2026-05-04 12:05 25.26223 51.62070 35 ft 19 kts 158°
2026-05-04 12:05 25.26093 51.62127 35 ft 20 kts 158°
2026-05-04 12:05 25.25962 51.62185 35 ft 20 kts 158°
2026-05-04 12:06 25.25832 51.62243 34 ft 20 kts 158°
2026-05-04 12:06 25.25715 51.62294 34 ft 12 kts 159°
2026-05-04 12:06 25.25634 51.62329 34 ft 12 kts 158°
2026-05-04 12:06 25.25574 51.62356 34 ft 6 kts 158°
2026-05-04 12:07 25.25516 51.62383 34 ft 9 kts 153°
2026-05-04 12:07 25.25483 51.62462 34 ft 19 kts 85°
2026-05-04 12:07 25.25513 51.62549 33 ft 5 kts 64°
2026-05-04 12:07 25.25596 51.62629 32 ft 20 kts 13°
2026-05-04 12:08 25.25811 51.62562 31 ft 55 kts 339°
2026-05-04 12:08 25.26411 51.62298 32 ft 129 kts 338°
2026-05-04 12:08 25.27439 51.61845 52 ft 183 kts 340°
2026-05-04 12:08 25.28624 51.61298 674 ft 184 kts 340°
2026-05-04 12:09 25.29766 51.60780 1623 ft 174 kts 336°
2026-05-04 12:09 25.30903 51.60273 2284 ft 180 kts 337°
2026-05-04 12:09 25.32083 51.59737 2914 ft 183 kts 338°
2026-05-04 12:09 25.33286 51.59273 3462 ft 190 kts 355°
2026-05-04 12:10 25.34675 51.59549 3689 ft 219 kts 15°
2026-05-04 12:10 25.36188 51.60033 4307 ft 231 kts 13°
2026-05-04 12:10 25.37759 51.60503 5174 ft 235 kts 12°
2026-05-04 12:10 25.39347 51.60972 6084 ft 238 kts 12°
2026-05-04 12:11 25.40961 51.61447 6910 ft 243 kts 12°
2026-05-04 12:11 25.42591 51.62013 7664 ft 251 kts 25°
2026-05-04 12:11 25.43864 51.63402 8335 ft 269 kts 59°
2026-05-04 12:11 25.44397 51.65427 9153 ft 281 kts 81°
2026-05-04 12:12 25.44484 51.67612 9930 ft 288 kts 86°
2026-05-04 12:12 25.44508 51.69844 10696 ft 292 kts 87°
2026-05-04 12:12 25.44516 51.72100 11536 ft 294 kts 88°
2026-05-04 12:12 25.44524 51.74368 12366 ft 296 kts 88°
2026-05-04 12:13 25.44534 51.76664 13194 ft 300 kts 88°
2026-05-04 12:14 25.44657 51.94596 16607 ft 405 kts 89°
2026-05-04 12:15 25.44682 51.97805 16903 ft 424 kts 89°
2026-05-04 12:15 25.44708 52.01110 17462 ft 435 kts 90°
2026-05-04 12:15 25.44734 52.04469 18212 ft 439 kts 90°
2026-05-04 12:15 25.44759 52.07851 18971 ft 440 kts 90°
2026-05-04 12:16 25.44784 52.11245 19742 ft 442 kts 90°
2026-05-04 12:16 25.44808 52.14655 20496 ft 444 kts 90°
2026-05-04 12:16 25.44832 52.18075 20789 ft 446 kts 90°
2026-05-04 12:16 25.44855 52.21505 20761 ft 444 kts 90°
2026-05-04 12:17 25.44877 52.24908 20760 ft 441 kts 90°
2026-05-04 12:17 25.44898 52.28301 20770 ft 440 kts 90°
2026-05-04 12:17 25.44918 52.31688 20773 ft 442 kts 90°
2026-05-04 12:17 25.44937 52.35085 20765 ft 443 kts 90°
2026-05-04 12:18 25.44956 52.38493 20772 ft 443 kts 90°
2026-05-04 12:18 25.44974 52.41908 20772 ft 444 kts 90°
2026-05-04 12:18 25.44985 52.44171 20761 ft 444 kts 90°
2026-05-04 12:18 25.45002 52.47590 20769 ft 444 kts 90°
2026-05-04 12:19 25.45018 52.51011 20756 ft 444 kts 90°
2026-05-04 12:19 25.45033 52.54426 20763 ft 444 kts 90°
2026-05-04 12:19 25.45048 52.57835 20760 ft 443 kts 90°
2026-05-04 12:19 25.45061 52.61236 20752 ft 442 kts 90°
2026-05-04 12:20 25.45075 52.64639 20760 ft 442 kts 90°
2026-05-04 12:20 25.45085 52.68040 20757 ft 441 kts 90°
2026-05-04 12:20 25.45145 52.71430 20758 ft 441 kts 86°
2026-05-04 12:20 25.45491 52.74799 20758 ft 441 kts 79°
2026-05-04 12:21 25.46140 52.78115 20770 ft 440 kts 77°
2026-05-04 12:21 25.46805 52.81416 20756 ft 440 kts 77°
2026-05-04 12:21 25.47457 52.84685 20747 ft 440 kts 76°
2026-05-04 12:21 25.48215 52.87970 20761 ft 440 kts 74°
2026-05-04 12:22 25.49021 52.91239 20756 ft 441 kts 74°
2026-05-04 12:22 25.49842 52.94508 20760 ft 441 kts 73°
2026-05-04 12:22 25.50663 52.97778 20756 ft 441 kts 74°
2026-05-04 12:22 25.51478 53.01050 20755 ft 441 kts 74°
2026-05-04 12:23 25.52287 53.04329 20754 ft 442 kts 74°
2026-05-04 12:23 25.53091 53.07610 20755 ft 442 kts 74°
2026-05-04 12:23 25.53893 53.10893 20753 ft 442 kts 74°
2026-05-04 12:23 25.54693 53.14177 20753 ft 442 kts 74°
2026-05-04 12:24 25.55492 53.17461 20750 ft 442 kts 74°
2026-05-04 12:24 25.56292 53.20749 20743 ft 442 kts 74°
2026-05-04 12:24 25.57091 53.24036 20740 ft 442 kts 74°
2026-05-04 12:24 25.57889 53.27322 20749 ft 441 kts 74°
2026-05-04 12:25 25.58683 53.30598 20747 ft 441 kts 74°
2026-05-04 12:25 25.59479 53.33883 20745 ft 441 kts 74°
2026-05-04 12:25 25.60273 53.37163 20740 ft 441 kts 74°
2026-05-04 12:25 25.61067 53.40444 20743 ft 441 kts 74°
2026-05-04 12:26 25.61860 53.43727 20741 ft 441 kts 74°
2026-05-04 12:26 25.62653 53.47009 20743 ft 441 kts 74°
2026-05-04 12:26 25.63445 53.50292 20741 ft 441 kts 74°
2026-05-04 12:26 25.64236 53.53574 20741 ft 441 kts 74°
2026-05-04 12:27 25.65026 53.56853 20739 ft 441 kts 74°
2026-05-04 12:27 25.65816 53.60138 20735 ft 441 kts 74°
2026-05-04 12:27 25.66605 53.63423 20739 ft 441 kts 74°
2026-05-04 12:27 25.67393 53.66707 20738 ft 441 kts 74°
2026-05-04 12:28 25.68181 53.69994 20743 ft 441 kts 74°
2026-05-04 12:28 25.68968 53.73280 20738 ft 441 kts 74°
2026-05-04 12:28 25.69758 53.76568 20740 ft 441 kts 74°
2026-05-04 12:28 25.70549 53.79849 20736 ft 441 kts 74°
2026-05-04 12:29 25.71339 53.83130 20735 ft 441 kts 74°
2026-05-04 12:29 25.72130 53.86416 20736 ft 441 kts 74°
2026-05-04 12:29 25.72920 53.89706 20738 ft 441 kts 74°
2026-05-04 12:29 25.73705 53.92979 20731 ft 440 kts 74°
2026-05-04 12:30 25.74493 53.96267 20727 ft 440 kts 74°
2026-05-04 12:30 25.75279 53.99552 20740 ft 440 kts 74°
2026-05-04 12:30 25.76157 54.02798 20734 ft 439 kts 69°
2026-05-04 12:30 25.77178 54.05999 20736 ft 439 kts 69°
2026-05-04 12:31 25.78213 54.09180 20736 ft 439 kts 69°
2026-05-04 12:31 25.79238 54.12372 20739 ft 439 kts 69°
2026-05-04 12:31 25.80237 54.15522 20720 ft 428 kts 69°
2026-05-04 12:31 25.81013 54.18598 20716 ft 415 kts 81°
2026-05-04 12:32 25.81140 54.21818 20729 ft 412 kts 94°
2026-05-04 12:32 25.79807 54.27965 20745 ft 412 kts 110°
2026-05-04 12:32 25.78842 54.30965 20727 ft 413 kts 110°
2026-05-04 12:33 25.77880 54.33958 20523 ft 413 kts 110°
2026-05-04 12:33 25.76926 54.36964 20266 ft 412 kts 109°
2026-05-04 12:33 25.75998 54.39922 19960 ft 411 kts 109°
2026-05-04 12:33 25.75067 54.42914 19575 ft 410 kts 109°
2026-05-04 12:34 25.74142 54.45897 19166 ft 409 kts 109°
2026-05-04 12:34 25.73225 54.48859 18859 ft 403 kts 109°
2026-05-04 12:34 25.72321 54.51777 18569 ft 397 kts 108°
2026-05-04 12:34 25.71424 54.54666 18171 ft 395 kts 108°
2026-05-04 12:35 25.70531 54.57545 17713 ft 394 kts 108°
2026-05-04 12:35 25.69641 54.60409 17268 ft 392 kts 108°
2026-05-04 12:35 25.68740 54.63251 16877 ft 389 kts 108°
2026-05-04 12:35 25.67837 54.66060 16485 ft 385 kts 109°
2026-05-04 12:36 25.66948 54.68820 16005 ft 374 kts 108°
2026-05-04 12:36 25.66081 54.71512 15130 ft 373 kts 108°
2026-05-04 12:36 25.65204 54.74246 14548 ft 378 kts 108°
2026-05-04 12:36 25.64321 54.76997 14038 ft 380 kts 108°
2026-05-04 12:37 25.63436 54.79754 13596 ft 379 kts 108°
2026-05-04 12:37 25.62554 54.82496 13173 ft 376 kts 108°
2026-05-04 12:37 25.61679 54.85220 12744 ft 373 kts 108°
2026-05-04 12:37 25.60775 54.87906 12314 ft 372 kts 110°
2026-05-04 12:38 25.59751 54.90534 11871 ft 371 kts 112°
2026-05-04 12:38 25.58691 54.93141 11427 ft 370 kts 112°
2026-05-04 12:38 25.57643 54.95730 11059 ft 366 kts 112°
2026-05-04 12:38 25.56648 54.98227 11005 ft 353 kts 112°
2026-05-04 12:39 25.55681 55.00673 10927 ft 341 kts 112°
2026-05-04 12:39 25.54748 55.03040 10843 ft 330 kts 112°
2026-05-04 12:39 25.53736 55.05284 10711 ft 322 kts 118°
2026-05-04 12:39 25.52620 55.07412 10480 ft 317 kts 119°
2026-05-04 12:40 25.51494 55.09504 10161 ft 316 kts 119°
2026-05-04 12:40 25.50377 55.11598 9956 ft 317 kts 119°
2026-05-04 12:40 25.49267 55.13712 9971 ft 320 kts 118°
2026-05-04 12:40 25.48172 55.15810 9948 ft 309 kts 118°
2026-05-04 12:41 25.47122 55.17827 9935 ft 295 kts 118°
2026-05-04 12:41 25.46118 55.19745 9867 ft 283 kts 120°
2026-05-04 12:41 25.44932 55.21481 9572 ft 283 kts 131°
2026-05-04 12:41 25.43599 55.23071 9266 ft 280 kts 133°
2026-05-04 12:42 25.42265 55.24629 8986 ft 278 kts 132°
2026-05-04 12:42 25.40949 55.26191 8694 ft 276 kts 131°
2026-05-04 12:42 25.39659 55.27749 8424 ft 273 kts 131°
2026-05-04 12:42 25.38391 55.29297 8166 ft 270 kts 131°
2026-05-04 12:43 25.37136 55.30833 7888 ft 268 kts 131°
2026-05-04 12:43 25.35897 55.32351 7665 ft 263 kts 130°
2026-05-04 12:43 25.34815 55.33940 7537 ft 259 kts 120°
2026-05-04 12:43 25.33876 55.35660 7435 ft 263 kts 118°
2026-05-04 12:44 25.32941 55.37415 7335 ft 267 kts 118°
2026-05-04 12:44 25.31990 55.39182 7230 ft 267 kts 119°
2026-05-04 12:44 25.31034 55.40934 7106 ft 265 kts 119°
2026-05-04 12:44 25.30078 55.42667 6979 ft 264 kts 119°
2026-05-04 12:45 25.29119 55.44393 6875 ft 262 kts 119°
2026-05-04 12:45 25.28165 55.46106 6746 ft 261 kts 119°
2026-05-04 12:45 25.27214 55.47808 6606 ft 260 kts 120°
2026-05-04 12:45 25.26269 55.49514 6509 ft 261 kts 120°
2026-05-04 12:46 25.25315 55.51229 6406 ft 262 kts 119°
2026-05-04 12:46 25.24356 55.52952 6311 ft 263 kts 120°
2026-05-04 12:46 25.23407 55.54663 6188 ft 261 kts 119°
2026-05-04 12:46 25.22460 55.56362 6078 ft 259 kts 119°
2026-05-04 12:47 25.21520 55.58049 5904 ft 258 kts 119°
2026-05-04 12:47 25.20589 55.59718 5677 ft 255 kts 120°
2026-05-04 12:47 25.19664 55.61377 5369 ft 254 kts 119°
2026-05-04 12:47 25.18736 55.63047 5039 ft 254 kts 119°
2026-05-04 12:48 25.17809 55.64709 4717 ft 255 kts 119°
2026-05-04 12:48 25.16850 55.66340 4433 ft 249 kts 130°
2026-05-04 12:48 25.15461 55.67425 4204 ft 246 kts 164°
2026-05-04 12:48 25.13783 55.67554 4111 ft 244 kts 195°
2026-05-04 12:49 25.12257 55.66856 3998 ft 232 kts 214°
2026-05-04 12:49 25.11116 55.65661 3834 ft 224 kts 246°
2026-05-04 12:49 25.10801 55.64078 3722 ft 212 kts 281°
2026-05-04 12:49 25.11255 55.62573 3683 ft 203 kts 297°
2026-05-04 12:50 25.11834 55.61121 3625 ft 207 kts 296°
2026-05-04 12:50 25.12461 55.59709 3580 ft 206 kts 300°
2026-05-04 12:50 25.13154 55.58365 3553 ft 196 kts 302°
2026-05-04 12:50 25.13843 55.57102 3438 ft 190 kts 303°
2026-05-04 12:51 25.14518 55.55885 3250 ft 182 kts 304°
2026-05-04 12:51 25.15178 55.54698 3015 ft 179 kts 302°
2026-05-04 12:51 25.15819 55.53539 2767 ft 174 kts 302°
2026-05-04 12:51 25.16435 55.52424 2563 ft 166 kts 302°
2026-05-04 12:52 25.17036 55.51337 2364 ft 164 kts 302°
2026-05-04 12:52 25.17625 55.50276 2136 ft 159 kts 301°
2026-05-04 12:52 25.18199 55.49247 1977 ft 154 kts 300°
2026-05-04 12:52 25.18744 55.48256 1738 ft 144 kts 300°
2026-05-04 12:53 25.19257 55.47329 1599 ft 140 kts 302°
2026-05-04 12:53 25.19770 55.46406 1400 ft 141 kts 301°
2026-05-04 12:53 25.20273 55.45493 1213 ft 137 kts 301°
2026-05-04 12:53 25.20776 55.44589 1048 ft 140 kts 301°
2026-05-04 12:54 25.21284 55.43668 893 ft 141 kts 299°
2026-05-04 12:54 25.21799 55.42740 708 ft 142 kts 299°
2026-05-04 12:54 25.22323 55.41805 568 ft 145 kts 299°
2026-05-04 12:54 25.22847 55.40843 388 ft 146 kts 299°
2026-05-04 12:55 25.23365 55.39890 143 ft 140 kts 300°
2026-05-04 12:55 25.23861 55.38996 31 ft 128 kts 298°
2026-05-04 12:55 25.24245 55.38305 31 ft 80 kts 302°
2026-05-04 12:55 25.24493 55.37857 29 ft 63 kts 301°
2026-05-04 12:56 25.24700 55.37486 27 ft 38 kts 300°
2026-05-04 12:56 25.24827 55.37255 29 ft 33 kts 303°
2026-05-04 12:56 25.24943 55.37048 29 ft 32 kts 298°
2026-05-04 12:56 25.25013 55.36834 28 ft 30 kts 279°
2026-05-04 12:57 25.25023 55.36683 27 ft 15 kts 272°
2026-05-04 12:57 25.25026 55.36568 26 ft 15 kts 271°
2026-05-04 12:57 25.25038 55.36453 26 ft 15 kts 283°
2026-05-04 12:57 25.25074 55.36346 31 ft 15 kts 298°
2026-05-04 12:58 25.25127 55.36247 26 ft 15 kts 302°
2026-05-04 12:58 25.25182 55.36149 26 ft 15 kts 302°
2026-05-04 12:58 25.25237 55.36051 31 ft 15 kts 301°
2026-05-04 12:58 25.25292 55.35953 30 ft 15 kts 302°
2026-05-04 12:59 25.25348 55.35856 29 ft 15 kts 301°
2026-05-04 12:59 25.25402 55.35758 29 ft 15 kts 302°
2026-05-04 12:59 25.25457 55.35660 29 ft 15 kts 302°
2026-05-04 12:59 25.25512 55.35562 31 ft 15 kts 301°
2026-05-04 13:00 25.25567 55.35465 29 ft 15 kts 302°
2026-05-04 13:00 25.25623 55.35367 30 ft 15 kts 302°
2026-05-04 13:00 25.25677 55.35269 29 ft 15 kts 301°
2026-05-04 13:00 25.25732 55.35171 32 ft 15 kts 302°
2026-05-04 13:01 25.25778 55.35083 28 ft 10 kts 293°
2026-05-04 13:01 25.25763 55.35011 32 ft 10 kts 229°
2026-05-04 13:01 25.25705 55.34965 32 ft 10 kts 210°
2026-05-04 13:01 25.25644 55.34924 30 ft 10 kts 211°
2026-05-04 13:02 25.25582 55.34882 30 ft 11 kts 212°
2026-05-04 13:02 25.25532 55.34850 28 ft 4 kts 208°
2026-05-04 13:02 25.25519 55.34839 29 ft 5 kts 232°
2026-05-04 13:02 25.25522 55.34798 30 ft 6 kts 285°
2026-05-04 13:03 25.25538 55.34759 29 ft 4 kts 299°
2026-05-04 13:03 25.25545 55.34746 30 ft 2 kts 300°
2026-05-04 13:03 25.25548 55.34740 30 ft 0 kts 301°